Location: Seasalter
(51.3333°N, 1.0167°E)
Time: 11:09:01
(UTC+00:00)

Cosmos 2333 Rocket - Pass Details

Date: 26 September 2023
Orbit: 837 x 864 km, 70.8° (Epoch: 28 November)

Event Time Altitude Azimuth Distance (km) Brightness Sun altitude
Rises 04:13:30 0° 327° (NNW) 3,426 5.2 -15.3°
Reaches altitude 10° 04:15:59 10° 323° (NW) 2,490 4.5 -15.0°
Maximum altitude 04:21:33 54° 247° (WSW) 1,030 2.3 -14.1°
Drops below altitude 10° 04:27:06 10° 172° (S) 2,490 4.6 -13.3°
Sets 04:29:36 0° 168° (SSE) 3,425 5.3 -12.9°
